• en France
  • Liste des pays
  • À 7 jours
  • Température de l'eau
  • Carte satellitaire
  • Carte météo
  • Widgets météo
  • user-avatar
    Se connecter

    Météo par heure à Gamboma

    Ce jour, 18 Février, Dimanche

    Heure Température Précipitation Vent Pression Humidité
    00:00 +27°C° 0 mm 2 m/s 727 mmHg 82%
    01:00 +27°C° 0 mm 2 m/s 727 mmHg 84%
    02:00 +26°C° 0,2 mm 2 m/s 727 mmHg 85%
    03:00 +26°C° 0,2 mm 2 m/s 727 mmHg 87%
    04:00 +26°C° 0,2 mm 2 m/s 727 mmHg 88%
    05:00 +26°C° 0,2 mm 2 m/s 727 mmHg 88%
    06:00 +26°C° 0,2 mm 2 m/s 727 mmHg 87%
    07:00 +26°C° 0,2 mm 2 m/s 728 mmHg 87%
    08:00 +27°C° 0 mm 2 m/s 728 mmHg 80%
    09:00 +29°C° 0 mm 2 m/s 728 mmHg 74%
    10:00 +30°C° 0 mm 2 m/s 729 mmHg 67%
    11:00 +31°C° 0,2 mm 2 m/s 728 mmHg 62%
    12:00 +34°C° 0,2 mm 2 m/s 727 mmHg 56%
    13:00 +35°C° 0,2 mm 2 m/s 727 mmHg 51%
    14:00 +34°C° 0,7 mm 2 m/s 726 mmHg 56%
    15:00 +32°C° 0,7 mm 2 m/s 726 mmHg 61%
    16:00 +30°C° 0,7 mm 2 m/s 726 mmHg 67%
    17:00 +29°C° 3,2 mm 2 m/s 726 mmHg 73%
    18:00 +28°C° 3,2 mm 1 m/s 726 mmHg 79%
    19:00 +27°C° 3,2 mm 1 m/s 726 mmHg 86%
    20:00 +26°C° 2,4 mm 1 m/s 727 mmHg 88%
    21:00 +26°C° 2,4 mm 1 m/s 727 mmHg 90%
    22:00 +26°C° 2,4 mm 1 m/s 728 mmHg 92%
    23:00 +26°C° 0,6 mm 1 m/s 727 mmHg 91%

    Demain, 19 Février, Lundi

    Heure Température Précipitation Vent Pression Humidité
    00:00 +25°C° 0,6 mm 1 m/s 727 mmHg 91%
    01:00 +25°C° 0,6 mm 1 m/s 727 mmHg 91%
    02:00 +25°C° 1,1 mm 1 m/s 727 mmHg 91%
    03:00 +25°C° 1,1 mm 2 m/s 727 mmHg 91%
    04:00 +25°C° 1,1 mm 2 m/s 727 mmHg 91%
    05:00 +25°C° 1,9 mm 2 m/s 727 mmHg 92%
    06:00 +25°C° 1,9 mm 1 m/s 727 mmHg 92%
    07:00 +24°C° 1,9 mm 1 m/s 728 mmHg 93%
    08:00 +25°C° 2,1 mm 1 m/s 728 mmHg 91%
    09:00 +25°C° 2,1 mm 2 m/s 729 mmHg 90%
    10:00 +26°C° 2,1 mm 2 m/s 729 mmHg 88%
    11:00 +26°C° 0,6 mm 2 m/s 729 mmHg 84%
    12:00 +27°C° 0,6 mm 3 m/s 728 mmHg 81%
    13:00 +27°C° 0,6 mm 3 m/s 727 mmHg 77%
    14:00 +27°C° 0,1 mm 3 m/s 727 mmHg 77%
    15:00 +27°C° 0,1 mm 2 m/s 727 mmHg 76%
    16:00 +27°C° 0,1 mm 2 m/s 726 mmHg 76%
    17:00 +27°C° 0,1 mm 2 m/s 726 mmHg 80%
    18:00 +26°C° 0,1 mm 1 m/s 727 mmHg 84%
    19:00 +25°C° 0,1 mm 1 m/s 727 mmHg 88%
    20:00 +25°C° 0,1 mm 1 m/s 728 mmHg 88%
    21:00 +25°C° 0,1 mm 1 m/s 728 mmHg 88%
    22:00 +25°C° 0,1 mm 2 m/s 728 mmHg 89%
    23:00 +24°C° 0 mm 1 m/s 728 mmHg 89%

    Après-demain, 20 Février, Mardi

    Heure Température Précipitation Vent Pression Humidité
    00:00 +24°C° 0 mm 1 m/s 727 mmHg 89%
    01:00 +24°C° 0 mm 1 m/s 727 mmHg 89%
    02:00 +24°C° 0 mm 1 m/s 727 mmHg 89%
    03:00 +24°C° 0 mm 1 m/s 727 mmHg 90%
    04:00 +24°C° 0 mm 1 m/s 727 mmHg 90%
    05:00 +24°C° 0 mm 1 m/s 727 mmHg 90%
    06:00 +24°C° 0 mm 1 m/s 727 mmHg 89%
    07:00 +24°C° 0 mm 1 m/s 728 mmHg 89%
    08:00 +25°C° 0,1 mm 1 m/s 728 mmHg 86%
    09:00 +26°C° 0,1 mm 1 m/s 729 mmHg 82%
    10:00 +27°C° 0,1 mm 1 m/s 729 mmHg 79%
    11:00 +28°C° 0,1 mm 2 m/s 728 mmHg 73%
    12:00 +29°C° 0,1 mm 2 m/s 727 mmHg 67%
    13:00 +30°C° 0,1 mm 2 m/s 726 mmHg 61%
    14:00 +31°C° 0 mm 2 m/s 725 mmHg 60%
    15:00 +31°C° 0 mm 2 m/s 725 mmHg 59%
    16:00 +31°C° 0 mm 2 m/s 724 mmHg 58%
    17:00 +30°C° 0 mm 2 m/s 725 mmHg 64%
    18:00 +28°C° 0 mm 1 m/s 725 mmHg 70%
    19:00 +27°C° 0 mm 1 m/s 726 mmHg 75%
    20:00 +26°C° 0 mm 1 m/s 726 mmHg 77%
    21:00 +26°C° 0 mm 1 m/s 727 mmHg 79%
    22:00 +26°C° 0 mm 2 m/s 727 mmHg 81%
    23:00 +25°C° 0 mm 2 m/s 727 mmHg 81%

    21 Février, Mercredi

    Heure Température Précipitation Vent Pression Humidité
    00:00 +25°C° 0 mm 2 m/s 727 mmHg 81%
    01:00 +25°C° 0 mm 2 m/s 726 mmHg 81%
    02:00 +25°C° 0 mm 2 m/s 726 mmHg 81%
    03:00 +25°C° 0 mm 2 m/s 726 mmHg 81%
    04:00 +24°C° 0 mm 2 m/s 726 mmHg 82%
    05:00 +25°C° 0 mm 2 m/s 726 mmHg 82%
    06:00 +25°C° 0 mm 1 m/s 727 mmHg 82%
    07:00 +25°C° 0 mm 1 m/s 727 mmHg 82%
    08:00 +26°C° 0 mm 2 m/s 728 mmHg 75%
    09:00 +28°C° 0 mm 2 m/s 728 mmHg 68%
    10:00 +29°C° 0 mm 2 m/s 728 mmHg 61%
    11:00 +31°C° 0 mm 2 m/s 727 mmHg 55%
    12:00 +34°C° 0 mm 2 m/s 726 mmHg 49%
    13:00 +36°C° 0 mm 2 m/s 725 mmHg 44%
    14:00 +36°C° 0 mm 2 m/s 725 mmHg 44%
    15:00 +36°C° 0 mm 2 m/s 724 mmHg 44%
    16:00 +35°C° 0 mm 1 m/s 724 mmHg 44%
    17:00 +33°C° 0 mm 1 m/s 724 mmHg 49%
    18:00 +32°C° 0 mm 1 m/s 725 mmHg 55%
    19:00 +30°C° 0 mm 1 m/s 725 mmHg 60%
    20:00 +29°C° 0,5 mm 2 m/s 726 mmHg 66%
    21:00 +28°C° 0,5 mm 2 m/s 726 mmHg 71%
    22:00 +27°C° 0,5 mm 3 m/s 726 mmHg 77%
    23:00 +27°C° 0,2 mm 2 m/s 726 mmHg 79%

    22 Février, Jeudi

    Heure Température Précipitation Vent Pression Humidité
    00:00 +26°C° 0,2 mm 2 m/s 726 mmHg 81%
    01:00 +26°C° 0,2 mm 2 m/s 726 mmHg 83%
    02:00 +26°C° 0,2 mm 2 m/s 726 mmHg 84%
    03:00 +26°C° 0,2 mm 1 m/s 726 mmHg 85%
    04:00 +25°C° 0,2 mm 1 m/s 726 mmHg 87%
    05:00 +25°C° 0,1 mm 1 m/s 726 mmHg 87%
    06:00 +25°C° 0,1 mm 1 m/s 726 mmHg 87%
    07:00 +25°C° 0,1 mm 1 m/s 727 mmHg 87%
    08:00 +26°C° 0,2 mm 1 m/s 727 mmHg 84%
    09:00 +27°C° 0,2 mm 1 m/s 727 mmHg 80%
    10:00 +28°C° 0,2 mm 2 m/s 728 mmHg 76%
    11:00 +29°C° 0,3 mm 2 m/s 727 mmHg 75%
    12:00 +29°C° 0,3 mm 2 m/s 726 mmHg 74%
    13:00 +29°C° 0,3 mm 2 m/s 725 mmHg 73%
    14:00 +30°C° 0 mm 2 m/s 725 mmHg 68%
    15:00 +31°C° 0 mm 1 m/s 724 mmHg 63%
    16:00 +32°C° 0 mm 1 m/s 724 mmHg 58%
    17:00 +30°C° 0 mm 1 m/s 724 mmHg 63%
    18:00 +29°C° 0 mm 1 m/s 724 mmHg 68%
    19:00 +28°C° 0 mm 1 m/s 725 mmHg 73%
    20:00 +27°C° 0 mm 1 m/s 725 mmHg 75%
    21:00 +27°C° 0 mm 1 m/s 725 mmHg 77%
    22:00 +26°C° 0 mm 1 m/s 726 mmHg 78%
    23:00 +26°C° 0 mm 1 m/s 725 mmHg 79%

    23 Février, Vendredi

    Heure Température Précipitation Vent Pression Humidité
    00:00 +26°C° 0 mm 1 m/s 725 mmHg 80%
    01:00 +26°C° 0 mm 1 m/s 725 mmHg 80%
    02:00 +26°C° 0 mm 1 m/s 725 mmHg 80%
    03:00 +26°C° 0 mm 1 m/s 725 mmHg 80%
    04:00 +26°C° 0 mm 1 m/s 725 mmHg 80%
    05:00 +26°C° 0 mm 1 m/s 725 mmHg 79%
    06:00 +26°C° 0 mm 1 m/s 726 mmHg 79%
    07:00 +26°C° 0 mm 1 m/s 726 mmHg 78%
    08:00 +28°C° 0,1 mm 1 m/s 727 mmHg 71%
    09:00 +30°C° 0,1 mm 1 m/s 727 mmHg 64%
    10:00 +32°C° 0,1 mm 1 m/s 727 mmHg 57%
    11:00 +34°C° 0 mm 1 m/s 726 mmHg 52%
    12:00 +35°C° 0 mm 1 m/s 725 mmHg 48%
    13:00 +36°C° 0 mm 1 m/s 725 mmHg 43%
    14:00 +36°C° 0 mm 1 m/s 724 mmHg 45%
    15:00 +35°C° 0 mm 1 m/s 724 mmHg 47%
    16:00 +34°C° 0 mm 1 m/s 724 mmHg 50%
    17:00 +33°C° 0 mm 1 m/s 724 mmHg 54%
    18:00 +32°C° 0 mm 1 m/s 724 mmHg 57%
    19:00 +30°C° 0 mm 1 m/s 725 mmHg 61%
    20:00 +30°C° 0 mm 1 m/s 725 mmHg 63%
    21:00 +29°C° 0 mm 1 m/s 725 mmHg 66%
    22:00 +28°C° 0 mm 1 m/s 725 mmHg 68%
    23:00 +28°C° 0 mm 1 m/s 725 mmHg 70%
    Voir plus